Satellite: GO-32
Catalog number: 25397
Epoch time:      08282.86719043
Element set:     716
Inclination:      098.3542 deg
RA of node:       312.3609 deg
Eccentricity:    0.0000299
Arg of perigee:   271.6853 deg
Mean anomaly:     088.4292 deg
Mean motion:   14.23148574 rev/day
Decay rate:       -9.9e-07 rev/day^2
Epoch rev:           53238
Checksum:              333

Satellite: NO-44
Catalog number: 26931
Epoch time:      08282.76715099
Element set:     996
Inclination:      067.0550 deg
RA of node:       352.0583 deg
Eccentricity:    0.0007154
Arg of perigee:   262.3145 deg
Mean anomaly:     097.7146 deg
Mean motion:   14.29535615 rev/day
Decay rate:        8.4e-07 rev/day^2
Epoch rev:           36664
Checksum:              329

Satellite: SO-50
Catalog number: 27607
Epoch time:      08283.46338562
Element set:     718
Inclination:      064.5586 deg
RA of node:       066.5747 deg
Eccentricity:    0.0085595
Arg of perigee:   257.3923 deg
Mean anomaly:     101.7592 deg
Mean motion:   14.71384011 rev/day
Decay rate:      -1.24e-06 rev/day^2
Epoch rev:           31178
Checksum:              326

Satellite: CO-55
Catalog number: 27844
Epoch time:      08282.76329342
Element set:    0414
Inclination:      098.7177 deg
RA of node:       289.4660 deg
Eccentricity:    0.0010327
Arg of perigee:   144.1276 deg
Mean anomaly:     216.0592 deg
Mean motion:   14.20599639 rev/day
Decay rate:        3.5e-07 rev/day^2
Epoch rev:           27356
Checksum:              327

Satellite: CO-57
Catalog number: 27848
Epoch time:      08282.98801883
Element set:     364
Inclination:      098.7176 deg
RA of node:       288.7641 deg
Eccentricity:    0.0009812
Arg of perigee:   147.5112 deg
Mean anomaly:     212.6677 deg
Mean motion:   14.20407270 rev/day
Decay rate:        1.3e-07 rev/day^2
Epoch rev:           27356
Checksum:              330

Satellite: AO-51
Catalog number: 28375
Epoch time:      08282.81671453
Element set:    0218
Inclination:      098.0660 deg
RA of node:       300.9710 deg
Eccentricity:    0.0083493
Arg of perigee:   167.4289 deg
Mean anomaly:     192.9009 deg
Mean motion:   14.40620032 rev/day
Decay rate:     -.00000000 rev/day^2
Epoch rev:           22476
Checksum:              287

Satellite: CO-56
Catalog number: 28941
Epoch time:      08283.66719146
Element set:     446
Inclination:      098.1171 deg
RA of node:       050.5720 deg
Eccentricity:    0.0147621
Arg of perigee:   343.9304 deg
Mean anomaly:     015.7346 deg
Mean motion:   15.62412506 rev/day
Decay rate:     2.1482e-04 rev/day^2
Epoch rev:           14788
Checksum:              314

Satellite: CP3
Catalog number: 31128
Epoch time:      08282.83455515
Element set:    0453
Inclination:      098.0275 deg
RA of node:       341.3970 deg
Eccentricity:    0.0102584
Arg of perigee:   344.1778 deg
Mean anomaly:     015.6201 deg
Mean motion:   14.51979143 rev/day
Decay rate:       -4.8e-07 rev/day^2
Epoch rev:           07842
Checksum:              301

Satellite: CP4
Catalog number: 31132
Epoch time:      08282.68803245
Element set:    0432
Inclination:      098.0318 deg
RA of node:       343.9752 deg
Eccentricity:    0.0085234
Arg of perigee:   336.8395 deg
Mean anomaly:     022.8952 deg
Mean motion:   14.55146686 rev/day
Decay rate:      .00000000 rev/day^2
Epoch rev:           07845
Checksum:              300

Satellite: CO-65
Catalog number: 32785
Epoch time:      08282.46094547
Element set:    0187
Inclination:      097.9818 deg
RA of node:       342.0322 deg
Eccentricity:    0.0015745
Arg of perigee:   125.0424 deg
Mean anomaly:     235.2271 deg
Mean motion:   14.81398751 rev/day
Decay rate:        7.3e-07 rev/day^2
Epoch rev:           02417
Checksum:              313

/EX
SB KEPS @ AMSAT  $ORB08283.W
Orbital Elements  08283.WEATHER

HR AMSAT ORBITAL ELEMENTS FOR WEATHER SATELLITES
FROM WA5QGD FORT WORTH,TX October 9, 2008
Send Subscribe/unsubscribe to KEPS at 
http://www.amsat.org/mailman/listinfo/keps
BID: ORB08283.W
TO ALL RADIO AMATEURS BT

Satellite: NOAA-10
Catalog number: 16969
Epoch time:      08283.55599178
Element set:     321
Inclination:      098.7182 deg
RA of node:       305.2691 deg
Eccentricity:    0.0011868
Arg of perigee:   204.7506 deg
Mean anomaly:     155.3111 deg
Mean motion:   14.27369219 rev/day
Decay rate:      -1.06e-06 rev/day^2
Epoch rev:           14775
Checksum:              320

Satellite: NOAA-11
Catalog number: 19531
Epoch time:      08283.30518622
Element set:     351
Inclination:      098.7949 deg
RA of node:       011.0233 deg
Eccentricity:    0.0012270
Arg of perigee:   102.1847 deg
Mean anomaly:     258.0734 deg
Mean motion:   14.14879959 rev/day
Decay rate:       2.14e-06 rev/day^2
Epoch rev:            3404
Checksum:              283

Satellite: NOAA-12
Catalog number: 21263
Epoch time:      08283.60906975
Element set:     867
Inclination:      098.7730 deg
RA of node:       285.5801 deg
Eccentricity:    0.0012616
Arg of perigee:   149.1704 deg
Mean anomaly:     211.0217 deg
Mean motion:   14.25548913 rev/day
Decay rate:        2.1e-07 rev/day^2
Epoch rev:           90469
Checksum:              304

